Location: DARK SKY Beskydy - Park tmavé oblohy, www.darkskybeskydy.cz
(49.4926°N, 18.5016°E)
Time: 04:38:33
(UTC+02:00)

A-11 Canister half - Pass Details

Date: 26 February 2024
Orbit: 1513 x 1686 km, 47.2° (Epoch: 24 April)

Event Time Altitude Azimuth Distance (km) Brightness Sun altitude
Rises 22:39:47 0° 174° (S) 4,919 - -45.9°
Reaches altitude 10° 22:45:05 10° 151° (SSE) 3,943 - -46.3°
Maximum altitude 22:49:40 14° 124° (ESE) 3,618 - -46.7°
Drops below altitude 10° 22:54:16 10° 96° (E) 3,939 - -47.0°
Sets 22:59:29 0° 74° (ENE) 4,912 - -47.3°
